Location: Bodest
(46.3000°N, 22.5667°E)
Time: 15:46:34
(UTC+00:00)

SL-19 R/B - Pass Details

Date: 01 June 2022
Orbit: 874 x 1208 km, 100.6° (Epoch: 03 July)

Event Time Altitude Azimuth Distance (km) Brightness Sun altitude
Rises 20:28:55 0° 5° (N) 4,012 8.7 -16.5°
Reaches altitude 10° 20:33:59 10° 333° (NNW) 3,108 8.5 -16.9°
Maximum altitude 20:35:43 11° 319° (NW) 3,045 8.3 -17.0°
Drops below altitude 10° 20:37:27 10° 304° (NW) 3,134 8.1 -17.2°
Sets 20:42:40 0° 273° (W) 4,118 8.2 -17.5°
